K3TE Weather Reports


time (UTC)temp
F
wind
direction
speed
knots
gust
knots
rain 1hr
in
rain 24hr
in
rain mn
in
humidity
%
barometer
mb
20260505171605 77 167 3.5 10.4 0.00 0.14 0.14 42 1011.0
20260505170059 77 151 4.3 13.9 0.00 0.14 0.14 46 1011.1
20260505164559 76 166 2.6 7.8 0.00 0.14 0.14 49 1011.2
20260505163100 75 250 0.9 4.3 0.00 0.14 0.14 48 1011.4
20260505161558 75 191 0.9 9.6 0.00 0.14 0.14 49 1011.7
20260505153100 73 327 2.6 7.8 0.00 0.14 0.14 51 1012.0
20260505151603 73 146 0.9 6.1 0.00 0.14 0.14 53 1012.0
20260505140109 67 207 2.6 8.7 0.00 0.14 0.14 64 1012.4
20260505124600 62 212 0.0 6.1 0.00 0.14 0.14 72 1012.8
20260505123111 61 0 0.9 6.1 0.00 0.14 0.14 74 1012.6
20260505121600 60 185 0.0 2.6 0.00 0.14 0.14 76 1012.2
20260505120128 59 163 0.9 5.2 0.00 0.14 0.14 80 1012.3
20260505114559 57 0 0.0 0.0 0.00 0.14 0.14 81 1012.2
20260505113058 56 0 0.0 0.0 0.00 0.14 0.14 85 1012.2
20260505111603 54 0 0.0 0.0 0.00 0.14 0.14 89 1012.0
20260505110114 53 0 0.0 0.0 0.00 0.14 0.14 92 1011.8
20260505101603 51 0 0.0 0.0 0.00 0.14 0.14 92 1011.7
20260505094557 52 0 0.0 0.0 0.00 0.14 0.14 91 1011.5
20260505093100 52 0 0.0 2.6 0.00 0.14 0.14 91 1011.4
20260505091600 51 135 0.0 1.7 0.01 0.14 0.14 92 1011.2
20260505090059 52 0 0.0 2.6 0.02 0.14 0.14 92 1011.3
20260505084604 53 140 0.9 4.3 0.13 0.14 0.14 92 1011.3
20260505083111 53 0 0.0 3.5 0.14 0.14 0.14 91 1011.3
20260505081608 53 328 0.0 2.6 0.13 0.13 0.13 90 1011.6
20260505080110 54 0 0.9 5.2 0.12 0.12 0.12 86 1011.8
20260505074559 56 205 1.7 2.6 0.01 0.01 0.01 76 1011.5
20260505073101 56 0 0.0 0.9 0.00 0.00 0.00 73 1011.3
20260505071558 56 0 0.0 1.7 0.00 0.00 0.00 74 1011.1
20260505070106 57 0 0.0 6.1 0.00 0.00 0.00 73 1011.2
20260505064648 57 155 0.9 3.5 0.00 0.00 0.00 70 1011.3
20260505063106 58 180 0.0 2.6 0.00 0.00 0.00 66 1011.3
20260505061601 58 172 1.7 6.1 0.00 0.00 0.00 65 1011.3
20260505060104 58 172 1.7 5.2 0.00 0.00 0.00 64 1011.4
20260505054604 58 179 1.7 5.2 0.00 0.00 0.00 64 1011.4
20260505053058 58 0 0.9 6.1 0.00 0.00 0.00 63 1011.4
20260505051601 58 174 0.9 7.0 0.00 0.00 0.00 62 1011.3
20260505050216 59 190 1.7 5.2 0.00 0.00 0.00 61 1011.3
20260505041608 59 143 1.7 8.7 0.00 0.00 0.00 60 1011.2
20260505040104 58 136 2.6 7.0 0.00 0.00 0.00 59 1011.1
20260505034613 58 203 0.0 3.5 0.00 0.00 0.00 59 1011.2
20260505033100 59 0 0.9 5.2 0.00 0.00 0.00 57 1011.1
20260505031603 59 178 0.9 7.0 0.00 0.00 0.00 56 1011.2
20260505030127 60 170 1.7 6.1 0.00 0.00 0.00 55 1011.2
20260505024611 60 182 2.6 8.7 0.00 0.00 0.00 54 1011.2
20260505023058 60 198 1.7 7.8 0.00 0.00 0.00 53 1011.3
20260505021558 61 0 1.7 8.7 0.00 0.00 0.00 52 1011.4
20260505020109 62 170 2.6 10.4 0.00 0.00 0.00 51 1011.4
20260505014604 62 157 3.5 10.4 0.00 0.00 0.00 51 1011.4
20260505013058 62 167 3.5 7.8 0.00 0.00 0.00 51 1011.4
20260505011602 62 190 3.5 8.7 0.00 0.00 0.00 50 1011.3
20260505010113 62 207 1.7 7.8 0.00 0.00 0.00 50 1011.1
20260505004631 63 192 2.6 10.4 0.00 0.00 0.00 49 1011.0
20260505003102 63 200 3.5 10.4 0.00 0.00 0.00 49 1010.8
20260505001603 63 184 3.5 7.8 0.00 0.00 0.00 48 1010.7
20260505000113 64 176 4.3 10.4 0.00 0.00 0.00 47 1010.6
20260504234600 65 148 3.5 10.4 0.00 0.00 0.00 45 1010.4
20260504233109 66 189 3.5 10.4 0.00 0.00 0.00 44 1010.3
20260504231626 66 194 3.5 7.8 0.00 0.00 0.00 45 1010.2
20260504230058 66 168 3.5 14.8 0.00 0.00 0.00 44 1010.1
20260504224618 66 148 4.3 11.3 0.00 0.00 0.00 44 1010.0
20260504223058 66 176 4.3 9.6 0.00 0.00 0.00 43 1010.0
20260504221646 67 153 4.3 9.6 0.00 0.00 0.00 43 1010.0
20260504220059 67 184 7.0 14.8 0.00 0.00 0.00 43 1010.2
20260504214604 67 0 2.6 13.9 0.00 0.00 0.00 42 1010.2
20260504213103 68 139 2.6 10.4 0.00 0.00 0.00 41 1010.2
20260504211600 67 191 2.6 9.6 0.00 0.00 0.00 44 1010.2
20260504210058 67 141 4.3 13.0 0.00 0.00 0.00 43 1010.3
20260504204600 68 130 6.1 12.2 0.00 0.00 0.00 42 1010.3
20260504203058 69 324 1.7 6.1 0.00 0.00 0.00 41 1010.5
20260504201611 69 8 0.9 12.2 0.00 0.00 0.00 40 1010.6
20260504200104 69 132 0.9 10.4 0.00 0.00 0.00 42 1010.9
20260504194605 69 237 2.6 12.2 0.00 0.00 0.00 43 1011.0
20260504193100 69 279 1.7 11.3 0.00 0.00 0.00 39 1011.0
20260504191621 69 147 1.7 11.3 0.00 0.00 0.00 43 1011.1
20260504190109 68 270 2.6 17.4 0.00 0.00 0.00 40 1011.3
20260504184609 68 274 1.7 12.2 0.00 0.00 0.00 39 1011.5
20260504183100 67 147 3.5 13.0 0.00 0.00 0.00 45 1011.6
20260504181606 67 212 3.5 13.0 0.00 0.00 0.00 42 1011.9
20260504180059 67 159 4.3 14.8 0.00 0.00 0.00 39 1012.2
20260504174559 67 220 3.5 13.0 0.00 0.00 0.00 43 1012.2
20260504173105 67 131 1.7 7.0 0.00 0.00 0.00 40 1012.3